Weather History for North Myrtle Beach, SC

Change the Weather History Date:

Saturday, July 27, 2013

  Actual Average Record
Temperature  
Mean Temperature 78 °F 80 °F  
Max Temperature 84 °F 87 °F 101 °F (2005)
Min Temperature 71 °F 73 °F 67 °F (1954)
Degree Days  
Heating Degree Days 0 0  
Month to date heating degree days 0 0  
Since 1 June heating degree days 0 0  
Since 1 July heating degree days 0 0  
Cooling Degree Days 13 15  
Month to date cooling degree days 415 417  
Year to date cooling degree days 982 986  
Since 1 June cooling degree days 802 774  
Growing Degree Days 26 (Base 50)    
Moisture  
Dew Point 71 °F    
Average Humidity 81    
Maximum Humidity 93    
Minimum Humidity 69    
Precipitation  
Precipitation 0.00 in 0.17 in 1.34 in (2001)
Month to date precipitation 5.49 5.16  
Year to date precipitation 35.38 27.20  
Sea Level Pressure  
Sea Level Pressure 30.00 in    
Wind  
Wind Speed 5 mph (SE)    
Max Wind Speed 12 mph    
Max Gust Speed 17 mph    
Visibility 10 miles    
Events      
T = Trace of Precipitation, MM = Missing Value Source: NWS Daily Summary

Daily Weather History Graph

Daily Weather History Graph

Search for Another Location

Airport:

Trip Planner

Search our weather history database for the weather conditions in past years. The results will help you decide how hot, cold, wet, or windy it might be!

Date:

Astronomy

Jul. 27, 2013 Rise Set
Actual Time 6:23 AM EDT 8:19 PM EDT
Civil Twilight 5:55 AM EDT 8:46 PM EDT
Nautical Twilight 5:22 AM EDT 9:20 PM EDT
Astronomical Twilight 4:46 AM EDT 9:55 PM EDT
Moon 11:25 PM EDT (7/27) 11:42 AM EDT (7/27)
Length of Visible Light 14h 50m
Length of Day
13h 55m
Waning Gibbous, 71% of the Moon is Illuminated
Jul 27
Waning Gibbous
Jul 29
Last Quarter
Aug 6
New
Aug 14
First Quarter
Aug 20
Full

Hourly Weather History & Observations

Time (EDT) Temp. Heat Index Dew Point Humidity Pressure Visibility Wind Dir Wind Speed Gust Speed Precip Events Conditions
12:53 AM 78.1 °F - 69.1 °F 74% 30.06 in 10.0 mi SSE 6.9 mph - N/A   Clear
1:53 AM 78.1 °F - 69.1 °F 74% 30.04 in 10.0 mi SSE 4.6 mph - N/A   Clear
2:53 AM 78.1 °F - 70.0 °F 76% 30.01 in 10.0 mi SE 3.5 mph - N/A   Clear
3:53 AM 73.0 °F - 69.1 °F 87% 30.01 in 10.0 mi Calm Calm - N/A   Clear
4:53 AM 72.0 °F - 69.1 °F 91% 30.01 in 10.0 mi Calm Calm - N/A   Scattered Clouds
5:53 AM 73.0 °F - 70.0 °F 90% 30.01 in 10.0 mi Calm Calm - N/A   Scattered Clouds
6:53 AM 71.1 °F - 70.0 °F 96% 30.04 in 7.0 mi Calm Calm - N/A   Partly Cloudy
7:53 AM 75.9 °F - 72.0 °F 87% 30.03 in 10.0 mi Calm Calm - N/A   Scattered Clouds
8:53 AM 80.1 °F 83.8 °F 72.0 °F 76% 30.04 in 10.0 mi South 5.8 mph - N/A   Clear
9:53 AM 81.0 °F 85.8 °F 73.0 °F 77% 30.03 in 10.0 mi SSE 8.1 mph - N/A   Clear
10:53 AM 82.0 °F 86.7 °F 72.0 °F 71% 30.03 in 10.0 mi SSE 8.1 mph - N/A   Partly Cloudy
11:53 AM 82.0 °F 86.7 °F 72.0 °F 71% 30.03 in 10.0 mi SE 8.1 mph - N/A   Clear
12:53 PM 82.0 °F 86.3 °F 71.1 °F 69% 30.01 in 10.0 mi SSE 9.2 mph - N/A   Clear
1:53 PM 82.9 °F 87.5 °F 71.1 °F 67% 30.00 in 10.0 mi South 9.2 mph - N/A   Clear
2:53 PM 82.9 °F 88.0 °F 72.0 °F 69% 29.97 in 10.0 mi SE 10.4 mph - N/A   Clear
3:53 PM 82.9 °F 87.5 °F 71.1 °F 67% 29.97 in 10.0 mi SSE 10.4 mph - N/A   Clear
4:53 PM 82.9 °F 87.5 °F 71.1 °F 67% 29.97 in 10.0 mi SE 8.1 mph - N/A   Clear
5:53 PM 82.0 °F 86.3 °F 71.1 °F 69% 29.96 in 10.0 mi Variable 5.8 mph - N/A   Clear
6:53 PM 81.0 °F 84.9 °F 71.1 °F 72% 29.96 in 10.0 mi SSE 8.1 mph - N/A   Partly Cloudy
7:53 PM 81.0 °F 85.2 °F 72.0 °F 74% 29.96 in 10.0 mi SE 4.6 mph - N/A   Partly Cloudy
8:53 PM 81.0 °F 85.2 °F 72.0 °F 74% 29.97 in 10.0 mi ESE 6.9 mph - N/A   Partly Cloudy
9:53 PM 80.1 °F 83.8 °F 72.0 °F 76% 29.96 in 10.0 mi Variable 3.5 mph - N/A   Partly Cloudy
10:53 PM 80.1 °F 83.8 °F 72.0 °F 76% 29.96 in 10.0 mi ESE 6.9 mph - N/A   Partly Cloudy
11:53 PM 80.1 °F 84.5 °F 73.9 °F 81% 29.97 in 10.0 mi East 3.5 mph - N/A   Mostly Cloudy